XW-2C

Last updated on Mon Feb 17 2025 00:03:01 GMT+0000 (Coordinated Universal Time)

1 40906U 15049H 25047.62605869 .06460715 25777-5 82494-3 0 9990 2 40906 97.4284 83.7622 0006300 238.5188 121.5494 16.35922890522636

Satellite not in orbit

XW-2C